Погода в Одессе

Погода в Одессе : погода сейчас, прогноз погоды и архив. Всё, что Вы хотите узнать о погоде в Одессе!

Хотите узнать прогноз погоды в Одессе? Тогда Вам сюда: Погода в Одессе

Поиск расширенной информации на нашем сайте:

Полезная информация:

Другие новости

Новости СМИ2

Главная страница сайта

Новости сайта

03.07.2017

Напоминаем, что на нашем специализированном сайте Метеоцентр.Азия вы можете получить высокодетализированные автоматические прогнозы погоды по пунктам России, СНГ и мира в авиационном формате (включающие направление и скорость ветра, видимость, явления погоды, количество и форму облачности, нижнюю и верхнюю границу облачности).

Рекомендуем:

Погода в Одессе - сегодня

Время (UTC), дата Ветер
(°,м/с) 
Видим.   Явления Облачность Т
(°С)
Тd
(°С)
f(%) Тe
(°С)
Pmin
(гПа)
dP
(гПа)
Po
(мм)
O2
(г/м3)
Тmin Tmax R s Состояние
почвы
09 15.09.19 100 (В) 27000 м    8/0 верхняя 
[Ci fib]
+20.2 +2.5 31 +20  1026.8  -0.2  766  287           
12 15.09.19 090 (В) 35000 м    6/0 верхняя 
[Ci fib]
+21.8 +3.9 31 +22  1024.5  -2.3  765  285           
15 15.09.19 200 (Ю) 50000 м    6/0 верхняя 
[Ci fib]
+19.6 +4.5 37 +21  1023.6  -0.9  764  287           
18 15.09.19 240 (ЮЗ) 40000 м    4/0 верхняя 
[Ci fib]
+18 +5.2 43 +19  1022.9  -0.7  763  288           
21 15.09.19 250 (З) 50000 м    4/0 верхняя 
[Ci fib]
+16.8 +6.6 51 +17  1021.4  -1.5  762  288           
00 16.09.19 260 (З) 19000 м    ясно 
+16.3 +8.3 59 +17  1020  -1.4  761  288           
03 16.09.19 250 (З) 50000 м    ясно 
+16.9 +8.3 57 +17  1018.5  -1.5  760  287      220  <0.5  мокрый или
старый снег
50-90% 
06 16.09.19 250 (З) 50000 м    3/0 верхняя 
[Ci fib]
+19.6 +8.6 49 +20  1017.4  -1.1  759  284  +15.6  +2.9       
09 16.09.19 230 (ЮЗ) 29000 м    ясно 
+23.8 +7.8 36 +24  1016.4  -0.9  759  280           
12 16.09.19 190 (Ю) 25000 м    ясно 
+24.2 +12.5 48 +24  1014.2  60.5             
15 16.09.19 190 (Ю) 27000 м    ясно 
+22.9 +13.7 56 +29  1012.6  -1.6  756  278           
18 16.09.19 250 (З) 35000 м    ясно 
+21.2 +12.9 59 +26  1012.7  0.1  756  280    +25.9       
21 16.09.19 280 (З) 30000 м    ясно 
+18.4 +11.9 66 +24  1012.7  -0.1  756  283           
00 17.09.19 270 (З) 50000 м    ясно 
+17.9 +8.2 53 +19  1011.6  -1.1  755  284           
03 17.09.19 270 (З) 45000 м    ясно 
+17.2 +6.1 48 +18  1010.4  -1.2  754  285           
06 17.09.19 320 (СЗ) 30000 м    9/0 средняя, верхняя 
[Ac trans|Cc]
+20.8 +5.6 37 +21  1011.7  1.4  755  282  +16.8         
09 17.09.19 340 (С) 50000 м    10/0 средняя 
[As trans]
+20.9 +9.8 49 +22  1012.5  -0.8  756  281           
12 17.09.19 300 (СЗ) 25000 м    10/0 средняя, верхняя 
[Ac trans|Cs]
+23.5 +10.9 45 +26  1011.6  -0.9  755  278           
15 17.09.19 тихо ()   21000 м    6/0 средняя, верхняя 
[Ac trans|Ci fib]
+20.6 +11.5 56 +24  1011.1  -0.5  755  281           
18 17.09.19 тихо ()   30000 м    10/6 600 м средняя, верхняя 
[Sc|Ac und|Ci fib]
+19.7 +10.1 54 +21  1011.1  755  282    +24       
21 17.09.19 250 (З) 45000 м    8/4 600 м средняя 
[Sc|Ac und]
+19.8 +13.5 67 +27  1010.3  -0.8  754  281           
00 18.09.19 тихо ()   20000 м  в посл. час ливневой дождь  8/3 600 м средняя 
[Sc|Ac und]
+18.1 +16.1 88 +18  1008.6  -1.7             
03 18.09.19 260 (З) 35000 м    6/0 средняя 
[Ac und]
+17.9 +13.4 75 +24  1007  -1.6  752  282           
06 18.09.19 320 (СЗ) 30000 м    10/3 1000 м средняя 
[Sc|Ac und]
+16.6 +10 65 +18  1009.3  2.2  753  284  +16.5  +2  0.4     
09 18.09.19 320 (СЗ) 35000 м  {ливн. осадки}  10/3 1000 м средняя 
[Sc diur, vesp|Ac und]
+18.9 +6.1 43 +19  1011.4  2.2  755  284           
Время (UTC), дата Ветер
(°,м/с) 
Видим.   Явления Облачность Т
(°С)
Тd
(°С)
f(%) Тe
(°С)
Pmin
(гПа)
dP
(гПа)
Po
(мм)
O2
(г/м3)
Тmin Tmax R s Состояние
почвы

Для получения пояснительной информации подведите курсор к названию столбца.

ПОГОДА в Одессе - архив

Всё, что Вы хотите узнать о погоде в Одессе - удобно и подробно!

Выберите нужную дату (начиная с 1 января 2018* года) и нажмите кнопку "Найти".
Будут отображены архивные сводки погоды по пункту Одесса, начиная с указанной даты.


Отображать данные в формате CSV (для использования в таблицах Excel)


Внимание! Наш архив погоды предназначен исключительно для личного некоммерческого использования в познавательных целях. Если Вам необходимы официальные справки о состоянии погоды (для производственных, юридических, коммерческих и т.п. целей), обращайтесь в органы Росгидромета.

*Примечание: данная дата относится к архиву по метеостанциям СССР (Россия, СНГ, Балтия).
Архив по метеостанциям Зарубежной Европы и Азии (кроме Китая) хранится 10 дней, по другим регионам земного шара (Китай, Африка, Америка, Австралия, Океания) - 1 день.

Одесса - район местоположения метеостанции


Название, широта, долгота, высота метеостанции:
Одесса (город) 46.4°ш. 30.8°д. 42 м над ур. моря [Украина]

Дополнительная информация

В oтличие oт бoльшинства пoгoдных сайтoв мы публикуем пoдрoбную метеoинфoрмацию в детальнoм прoфессиoнальнoм фoрмате.

Характеристики температуры и влажнoсти вoздуха измеряются на высoте 2 м в тени вдали oт зданий и деревьев.
Скoрoсть ветра измеряется на высoте 10 м (на урoвне рoста челoвека скoрoсть ветра ниже в 1.5-2 раза). Если метеoстанция нахoдится в гoрoде или в лесу, тo скoрoсть ветра занижена на 2-4 м/с пo сравнению с oткрытым местoм. Скoрoсть ветра над акватoриями крупных рек и oзёр, а также на вершинах хoлмoв на 2-5 м/с выше, чем в oбычных услoвиях.
Атмoсфернoе давление в разных тoчках местнoсти мoжет значительнo oтличаться oт давления на метеoстанции, в зависимoсти oт услoвий рельефа (при пoдъёме на 10 м давление пoнижается примернo на 1 мм рт.ст.).